Time,TemperatureF,DewpointF,PressureIn,WindDirection,WindDirectionDegrees,WindSpeedMPH,WindSpeedGustMPH,Humidity,HourlyPrecipIn,Conditions,Clouds,dailyrainin,SoftwareType,DateUTC
2013-07-18 00:00:00,71.2,70.0,30.13,N/A,-737280,0.0,0.0,96,0.00,,,0.00,Wunderground v.1.13,2013-07-18 04:00:00,
2013-07-18 00:05:00,71.2,70.0,30.13,N/A,-737280,0.0,0.0,96,0.00,,,0.00,Wunderground v.1.13,2013-07-18 04:05:00,
2013-07-18 00:10:00,71.2,70.0,30.13,N/A,-737280,0.0,0.0,96,0.00,,,0.00,Wunderground v.1.13,2013-07-18 04:10:00,
2013-07-18 00:15:00,71.1,69.9,30.13,N/A,-737280,0.0,0.0,96,0.00,,,0.00,Wunderground v.1.13,2013-07-18 04:15:00,
2013-07-18 00:20:00,71.1,69.9,30.13,N/A,-737280,0.0,0.0,96,0.00,,,0.00,Wunderground v.1.13,2013-07-18 04:20:00,
2013-07-18 00:25:00,71.1,69.9,30.13,N/A,-737280,0.0,0.0,96,0.00,,,0.00,Wunderground v.1.13,2013-07-18 04:25:00,
2013-07-18 00:30:00,71.0,69.8,30.12,N/A,-737280,0.0,0.0,96,0.00,,,0.00,Wunderground v.1.13,2013-07-18 04:30:00,
2013-07-18 00:35:00,71.0,69.8,30.12,N/A,-737280,0.0,0.0,96,0.00,,,0.00,Wunderground v.1.13,2013-07-18 04:35:00,
2013-07-18 00:40:00,71.0,69.8,30.12,N/A,-737280,0.0,0.0,96,0.00,,,0.00,Wunderground v.1.13,2013-07-18 04:40:00,
2013-07-18 00:45:00,71.0,69.8,30.13,N/A,-737280,0.0,0.0,96,0.00,,,0.00,Wunderground v.1.13,2013-07-18 04:45:00,
2013-07-18 00:50:00,71.0,69.8,30.12,N/A,-737280,0.0,0.0,96,0.00,,,0.00,Wunderground v.1.13,2013-07-18 04:50:00,
2013-07-18 00:55:00,71.0,69.8,30.13,N/A,-737280,0.0,0.0,96,0.00,,,0.00,Wunderground v.1.13,2013-07-18 04:55:00,
2013-07-18 01:00:00,70.9,69.7,30.13,N/A,-737280,0.0,0.0,96,0.00,,,0.00,Wunderground v.1.13,2013-07-18 05:00:00,
2013-07-18 01:05:00,70.9,69.7,30.13,N/A,-737280,0.0,0.0,96,0.00,,,0.00,Wunderground v.1.13,2013-07-18 05:05:00,
2013-07-18 01:10:00,70.9,69.7,30.12,N/A,-737280,0.0,0.0,96,0.00,,,0.00,Wunderground v.1.13,2013-07-18 05:10:00,
2013-07-18 01:15:00,70.9,69.7,30.12,N/A,-737280,0.0,0.0,96,0.00,,,0.00,Wunderground v.1.13,2013-07-18 05:15:00,
2013-07-18 01:20:00,70.9,69.7,30.12,N/A,-737280,0.0,0.0,96,0.00,,,0.00,Wunderground v.1.13,2013-07-18 05:20:00,
2013-07-18 01:25:00,71.0,69.8,30.12,N/A,-737280,0.0,0.0,96,0.00,,,0.00,Wunderground v.1.13,2013-07-18 05:25:00,
2013-07-18 01:30:00,71.0,69.8,30.13,N/A,-737280,0.0,0.0,96,0.00,,,0.00,Wunderground v.1.13,2013-07-18 05:30:00,
2013-07-18 01:35:00,71.1,69.9,30.13,N/A,-737280,0.0,0.0,96,0.00,,,0.00,Wunderground v.1.13,2013-07-18 05:35:00,
2013-07-18 01:40:00,71.1,69.9,30.12,N/A,-737280,0.0,0.0,96,0.00,,,0.00,Wunderground v.1.13,2013-07-18 05:40:00,
2013-07-18 01:45:00,71.0,69.8,30.12,N/A,-737280,0.0,0.0,96,0.00,,,0.00,Wunderground v.1.13,2013-07-18 05:45:00,
2013-07-18 01:50:00,71.0,69.8,30.12,N/A,-737280,0.0,0.0,96,0.00,,,0.00,Wunderground v.1.13,2013-07-18 05:50:00,
2013-07-18 01:55:00,71.0,70.1,30.12,N/A,-737280,0.0,0.0,97,0.00,,,0.00,Wunderground v.1.13,2013-07-18 05:55:00,
2013-07-18 02:00:00,71.0,70.1,30.12,N/A,-737280,0.0,0.0,97,0.00,,,0.00,Wunderground v.1.13,2013-07-18 06:00:00,
2013-07-18 02:05:00,70.9,69.7,30.12,N/A,-737280,0.0,0.0,96,0.00,,,0.00,Wunderground v.1.13,2013-07-18 06:05:00,
2013-07-18 02:10:00,70.8,69.6,30.12,N/A,-737280,0.0,0.0,96,0.00,,,0.00,Wunderground v.1.13,2013-07-18 06:10:00,
2013-07-18 02:15:00,70.8,69.6,30.13,N/A,-737280,0.0,0.0,96,0.00,,,0.00,Wunderground v.1.13,2013-07-18 06:15:00,
2013-07-18 02:20:00,70.8,69.6,30.13,N/A,-737280,0.0,0.0,96,0.00,,,0.00,Wunderground v.1.13,2013-07-18 06:20:00,
2013-07-18 02:25:00,70.8,69.6,30.12,N/A,-737280,0.0,0.0,96,0.00,,,0.00,Wunderground v.1.13,2013-07-18 06:25:00,
2013-07-18 02:30:00,71.6,70.4,30.13,South,170,0.0,0.0,96,0.00,,,0.00,Wunderground v.1.13,2013-07-18 06:30:00,
2013-07-18 02:40:00,71.5,70.3,30.13,South,169,0.0,0.0,96,0.00,,,0.00,Wunderground v.1.13,2013-07-18 06:40:00,
2013-07-18 02:45:00,71.5,70.3,30.13,South,169,0.0,0.0,96,0.00,,,0.00,Wunderground v.1.13,2013-07-18 06:45:00,
2013-07-18 02:55:00,71.5,70.3,30.12,South,170,0.0,0.0,96,0.00,,,0.00,Wunderground v.1.13,2013-07-18 06:55:00,
2013-07-18 03:05:00,71.3,70.1,30.12,South,170,0.0,0.0,96,0.00,,,0.00,Wunderground v.1.13,2013-07-18 07:05:00,
2013-07-18 03:15:00,71.3,70.1,30.13,South,170,0.0,0.0,96,0.00,,,0.00,Wunderground v.1.13,2013-07-18 07:15:00,
2013-07-18 03:20:00,71.3,70.1,30.12,South,169,0.0,0.0,96,0.00,,,0.00,Wunderground v.1.13,2013-07-18 07:20:00,
2013-07-18 03:30:00,71.3,70.1,30.12,South,170,0.0,0.0,96,0.00,,,0.00,Wunderground v.1.13,2013-07-18 07:30:00,
2013-07-18 03:35:00,71.3,70.1,30.12,South,170,0.0,0.0,96,0.00,,,0.00,Wunderground v.1.13,2013-07-18 07:35:00,
2013-07-18 03:40:00,71.3,70.1,30.12,South,170,0.0,0.0,96,0.00,,,0.00,Wunderground v.1.13,2013-07-18 07:40:00,
2013-07-18 03:50:00,71.3,70.1,30.12,South,170,0.0,0.0,96,0.00,,,0.00,Wunderground v.1.13,2013-07-18 07:50:00,
2013-07-18 03:55:00,71.2,70.0,30.12,South,169,0.0,0.0,96,0.00,,,0.00,Wunderground v.1.13,2013-07-18 07:55:00,
2013-07-18 04:05:00,71.2,70.0,30.12,South,170,0.0,0.0,96,0.00,,,0.00,Wunderground v.1.13,2013-07-18 08:05:00,
2013-07-18 04:15:00,71.2,70.0,30.12,South,170,0.0,0.0,96,0.00,,,0.00,Wunderground v.1.13,2013-07-18 08:15:00,
2013-07-18 04:20:00,71.1,69.9,30.13,South,170,0.0,0.0,96,0.00,,,0.00,Wunderground v.1.13,2013-07-18 08:20:00,
2013-07-18 04:30:00,71.0,69.8,30.12,South,169,0.0,0.0,96,0.00,,,0.00,Wunderground v.1.13,2013-07-18 08:30:00,
2013-07-18 04:35:00,71.0,69.8,30.12,South,170,0.0,0.0,96,0.00,,,0.00,Wunderground v.1.13,2013-07-18 08:35:00,
2013-07-18 04:40:00,71.0,69.8,30.12,South,169,0.0,0.0,96,0.00,,,0.00,Wunderground v.1.13,2013-07-18 08:40:00,
2013-07-18 04:45:00,71.0,69.8,30.13,South,170,0.0,0.0,96,0.00,,,0.00,Wunderground v.1.13,2013-07-18 08:45:00,
2013-07-18 04:55:00,71.0,69.8,30.13,South,169,0.0,0.0,96,0.00,,,0.00,Wunderground v.1.13,2013-07-18 08:55:00,
2013-07-18 05:00:00,71.0,69.8,30.13,South,170,0.0,0.0,96,0.00,,,0.00,Wunderground v.1.13,2013-07-18 09:00:00,
2013-07-18 05:05:00,70.9,69.7,30.13,South,169,0.0,0.0,96,0.00,,,0.00,Wunderground v.1.13,2013-07-18 09:05:00,
2013-07-18 05:15:00,70.9,69.7,30.12,South,170,0.0,0.0,96,0.00,,,0.00,Wunderground v.1.13,2013-07-18 09:15:00,
2013-07-18 05:20:00,70.9,69.7,30.12,South,169,0.0,0.0,96,0.00,,,0.00,Wunderground v.1.13,2013-07-18 09:20:00,
2013-07-18 05:25:00,70.9,69.7,30.12,South,170,0.0,0.0,96,0.00,,,0.00,Wunderground v.1.13,2013-07-18 09:25:00,
2013-07-18 05:35:00,71.0,69.8,30.13,South,170,0.0,0.0,96,0.00,,,0.00,Wunderground v.1.13,2013-07-18 09:35:00,
2013-07-18 05:40:00,71.1,69.9,30.12,South,170,0.0,0.0,96,0.00,,,0.00,Wunderground v.1.13,2013-07-18 09:40:00,
2013-07-18 05:45:00,71.1,69.9,30.12,South,170,0.0,0.0,96,0.00,,,0.00,Wunderground v.1.13,2013-07-18 09:45:00,
2013-07-18 05:55:00,71.0,69.8,30.12,South,169,0.0,0.0,96,0.00,,,0.00,Wunderground v.1.13,2013-07-18 09:55:00,
2013-07-18 06:00:00,71.0,70.1,30.12,South,170,0.0,0.0,97,0.00,,,0.00,Wunderground v.1.13,2013-07-18 10:00:00,
2013-07-18 06:05:00,71.0,70.1,30.12,South,169,0.0,0.0,97,0.00,,,0.00,Wunderground v.1.13,2013-07-18 10:05:00,
2013-07-18 06:15:00,70.8,69.6,30.12,South,170,0.0,0.0,96,0.00,,,0.00,Wunderground v.1.13,2013-07-18 10:15:00,
2013-07-18 06:20:00,70.8,69.6,30.12,South,170,0.0,0.0,96,0.00,,,0.00,Wunderground v.1.13,2013-07-18 10:20:00,
2013-07-18 06:25:00,70.8,69.6,30.12,South,170,0.0,0.0,96,0.00,,,0.00,Wunderground v.1.13,2013-07-18 10:25:00,
2013-07-18 06:35:00,70.8,69.9,30.13,South,169,0.0,0.0,97,0.00,,,0.00,Wunderground v.1.13,2013-07-18 10:35:00,
2013-07-18 06:40:00,70.9,70.0,30.13,South,169,0.0,0.0,97,0.00,,,0.00,Wunderground v.1.13,2013-07-18 10:40:00,
2013-07-18 06:50:00,71.1,70.2,30.13,WSW,245,0.0,0.0,97,0.00,,,0.00,Wunderground v.1.13,2013-07-18 10:50:00,
2013-07-18 06:55:00,71.2,70.3,30.13,WSW,245,0.0,0.0,97,0.00,,,0.00,Wunderground v.1.13,2013-07-18 10:55:00,
2013-07-18 07:00:00,71.2,70.3,30.13,WSW,245,0.0,0.0,97,0.00,,,0.00,Wunderground v.1.13,2013-07-18 11:00:00,
2013-07-18 07:05:00,71.2,70.3,30.13,WSW,245,0.0,0.0,97,0.00,,,0.00,Wunderground v.1.13,2013-07-18 11:05:00,
2013-07-18 07:15:00,71.3,70.4,30.13,WSW,245,0.0,0.0,97,0.00,,,0.00,Wunderground v.1.13,2013-07-18 11:15:00,
2013-07-18 07:20:00,71.3,70.4,30.13,SSE,163,0.0,0.0,97,0.00,,,0.00,Wunderground v.1.13,2013-07-18 11:20:00,
2013-07-18 07:25:00,71.3,70.4,30.13,SSE,163,0.0,0.0,97,0.00,,,0.00,Wunderground v.1.13,2013-07-18 11:25:00,
2013-07-18 07:30:00,71.3,70.4,30.13,SSE,163,0.0,0.0,97,0.00,,,0.00,Wunderground v.1.13,2013-07-18 11:30:00,
2013-07-18 07:35:00,71.3,70.4,30.13,SSE,163,0.0,0.0,97,0.00,,,0.00,Wunderground v.1.13,2013-07-18 11:35:00,
2013-07-18 07:45:00,71.6,70.7,30.13,SSE,163,0.0,0.0,97,0.00,,,0.00,Wunderground v.1.13,2013-07-18 11:45:00,
2013-07-18 07:50:00,71.7,70.8,30.13,SSE,163,0.0,0.0,97,0.00,,,0.00,Wunderground v.1.13,2013-07-18 11:50:00,
2013-07-18 07:55:00,71.8,70.9,30.13,SSE,163,0.0,0.0,97,0.00,,,0.00,Wunderground v.1.13,2013-07-18 11:55:00,
2013-07-18 08:00:00,71.9,71.0,30.13,SSE,163,0.0,0.0,97,0.00,,,0.00,Wunderground v.1.13,2013-07-18 12:00:00,
2013-07-18 08:05:00,72.0,71.1,30.13,SSE,163,0.0,1.0,97,0.00,,,0.00,Wunderground v.1.13,2013-07-18 12:05:00,
2013-07-18 08:15:00,72.4,71.5,30.13,SSE,163,0.0,1.0,97,0.00,,,0.00,Wunderground v.1.13,2013-07-18 12:15:00,
2013-07-18 08:20:00,72.4,71.5,30.13,SSE,163,0.0,1.0,97,0.00,,,0.00,Wunderground v.1.13,2013-07-18 12:20:00,
2013-07-18 08:25:00,72.3,71.4,30.12,SSE,163,0.0,1.0,97,0.00,,,0.00,Wunderground v.1.13,2013-07-18 12:25:00,
2013-07-18 08:30:00,72.5,71.9,30.13,SSE,163,0.0,1.0,98,0.00,,,0.00,Wunderground v.1.13,2013-07-18 12:30:00,
2013-07-18 08:35:00,72.9,72.0,30.13,SSE,163,0.0,1.0,97,0.00,,,0.00,Wunderground v.1.13,2013-07-18 12:35:00,
2013-07-18 08:40:00,73.3,72.7,30.13,SSE,163,0.0,1.0,98,0.00,,,0.00,Wunderground v.1.13,2013-07-18 12:40:00,
2013-07-18 08:45:00,73.6,73.0,30.13,SSE,163,0.0,1.0,98,0.00,,,0.00,Wunderground v.1.13,2013-07-18 12:45:00,
2013-07-18 08:50:00,73.9,73.3,30.13,SE,132,0.0,1.0,98,0.00,,,0.00,Wunderground v.1.13,2013-07-18 12:50:00,
2013-07-18 09:00:00,74.4,73.8,30.13,SE,132,0.0,1.0,98,0.00,,,0.00,Wunderground v.1.13,2013-07-18 13:00:00,
2013-07-18 09:05:00,75.0,74.4,30.13,SE,132,0.0,1.0,98,0.00,,,0.00,Wunderground v.1.13,2013-07-18 13:05:00,
2013-07-18 09:15:00,75.6,75.0,30.13,SE,132,0.0,1.0,98,0.00,,,0.00,Wunderground v.1.13,2013-07-18 13:15:00,
2013-07-18 09:20:00,75.8,75.2,30.13,SE,132,0.0,1.0,98,0.00,,,0.00,Wunderground v.1.13,2013-07-18 13:20:00,
2013-07-18 09:25:00,76.1,75.5,30.13,SE,138,0.0,1.0,98,0.00,,,0.00,Wunderground v.1.13,2013-07-18 13:25:00,
2013-07-18 09:35:00,77.1,76.2,30.13,SE,138,0.0,1.0,97,0.00,,,0.00,Wunderground v.1.13,2013-07-18 13:35:00,
2013-07-18 09:40:00,77.5,76.6,30.13,SE,140,0.0,1.0,97,0.00,,,0.00,Wunderground v.1.13,2013-07-18 13:40:00,
2013-07-18 09:45:00,78.0,77.1,30.13,SE,140,0.0,1.0,97,0.00,,,0.00,Wunderground v.1.13,2013-07-18 13:45:00,
2013-07-18 09:55:00,79.0,77.8,30.12,SE,140,0.0,1.0,96,0.00,,,0.00,Wunderground v.1.13,2013-07-18 13:55:00,
2013-07-18 10:00:00,79.5,78.3,30.12,SE,139,0.0,1.0,96,0.00,,,0.00,Wunderground v.1.13,2013-07-18 14:00:00,
2013-07-18 10:05:00,80.0,78.4,30.12,SE,139,0.0,1.0,95,0.00,,,0.00,Wunderground v.1.13,2013-07-18 14:05:00,
2013-07-18 10:15:00,81.1,79.2,30.12,SE,140,0.0,1.0,94,0.00,,,0.00,Wunderground v.1.13,2013-07-18 14:15:00,
2013-07-18 10:20:00,81.8,78.9,30.12,SE,144,0.0,1.0,91,0.00,,,0.00,Wunderground v.1.13,2013-07-18 14:20:00,
2013-07-18 10:25:00,82.1,78.5,30.12,South,175,0.0,1.0,89,0.00,,,0.00,Wunderground v.1.13,2013-07-18 14:25:00,
2013-07-18 10:30:00,81.8,78.2,30.12,SSE,161,1.0,1.0,89,0.00,,,0.00,Wunderground v.1.13,2013-07-18 14:30:00,
2013-07-18 10:35:00,82.1,78.9,30.12,SSE,161,1.0,2.0,90,0.00,,,0.00,Wunderground v.1.13,2013-07-18 14:35:00,
2013-07-18 10:45:00,83.0,79.1,30.13,SSE,153,0.0,1.0,88,0.00,,,0.00,Wunderground v.1.13,2013-07-18 14:45:00,
2013-07-18 10:50:00,83.4,79.5,30.12,SSE,155,0.0,1.0,88,0.00,,,0.00,Wunderground v.1.13,2013-07-18 14:50:00,
2013-07-18 11:06:00,84.6,78.9,30.12,SSW,211,1.0,3.0,83,0.00,,,0.00,Wunderground v.1.13,2013-07-18 15:06:00,
2013-07-18 11:15:00,84.9,79.5,30.12,SW,226,1.0,3.0,84,0.00,,,0.00,Wunderground v.1.13,2013-07-18 15:15:00,
2013-07-18 11:20:00,85.4,80.0,30.12,SW,226,0.0,3.0,84,0.00,,,0.00,Wunderground v.1.13,2013-07-18 15:20:00,
2013-07-18 11:25:00,85.6,79.5,30.11,SW,226,1.0,3.0,82,0.00,,,0.00,Wunderground v.1.13,2013-07-18 15:25:00,
2013-07-18 11:30:00,85.3,78.4,30.11,SW,226,1.0,3.0,80,0.00,,,0.00,Wunderground v.1.13,2013-07-18 15:30:00,
2013-07-18 11:35:00,85.7,80.3,30.11,SW,226,1.0,3.0,84,0.00,,,0.00,Wunderground v.1.13,2013-07-18 15:35:00,
2013-07-18 11:40:00,85.9,78.6,30.11,West,268,1.0,3.0,79,0.00,,,0.00,Wunderground v.1.13,2013-07-18 15:40:00,
2013-07-18 11:50:00,86.2,80.4,30.11,West,269,1.0,3.0,83,0.00,,,0.00,Wunderground v.1.13,2013-07-18 15:50:00,
2013-07-18 11:55:00,86.6,79.7,30.11,WSW,254,1.0,3.0,80,0.00,,,0.00,Wunderground v.1.13,2013-07-18 15:55:00,
2013-07-18 12:00:00,86.3,78.6,30.10,SSE,166,2.0,2.0,78,0.00,,,0.00,Wunderground v.1.13,2013-07-18 16:00:00,
2013-07-18 12:05:00,86.5,78.4,30.10,SW,233,2.0,2.0,77,0.00,,,0.00,Wunderground v.1.13,2013-07-18 16:05:00,
2013-07-18 12:15:00,87.4,79.3,30.10,WSW,239,1.0,4.0,77,0.00,,,0.00,Wunderground v.1.13,2013-07-18 16:15:00,
2013-07-18 12:20:00,87.5,79.4,30.10,SSE,167,0.0,4.0,77,0.00,,,0.00,Wunderground v.1.13,2013-07-18 16:20:00,
2013-07-18 12:30:00,88.2,79.3,30.10,SSE,155,0.0,4.0,75,0.00,,,0.00,Wunderground v.1.13,2013-07-18 16:30:00,
2013-07-18 12:35:00,88.1,79.6,30.09,SSW,209,1.0,4.0,76,0.00,,,0.00,Wunderground v.1.13,2013-07-18 16:35:00,
2013-07-18 12:40:00,88.1,79.6,30.09,SSW,207,1.0,4.0,76,0.00,,,0.00,Wunderground v.1.13,2013-07-18 16:40:00,
2013-07-18 12:45:00,88.2,78.4,30.09,SSW,209,1.0,1.0,73,0.00,,,0.00,Wunderground v.1.13,2013-07-18 16:45:00,
2013-07-18 12:50:00,88.7,78.5,30.09,SSE,157,0.0,4.0,72,0.00,,,0.00,Wunderground v.1.13,2013-07-18 16:50:00,
2013-07-18 12:55:00,89.0,78.8,30.09,SSE,157,0.0,4.0,72,0.00,,,0.00,Wunderground v.1.13,2013-07-18 16:55:00,
2013-07-18 13:00:00,89.2,79.0,30.09,SSE,165,1.0,1.0,72,0.00,,,0.00,Wunderground v.1.13,2013-07-18 17:00:00,
2013-07-18 13:05:00,89.1,78.0,30.08,WSW,249,1.0,5.0,70,0.00,,,0.00,Wunderground v.1.13,2013-07-18 17:05:00,
2013-07-18 13:15:00,89.2,80.2,30.08,South,181,1.0,5.0,75,0.00,,,0.00,Wunderground v.1.13,2013-07-18 17:15:00,
2013-07-18 13:20:00,89.5,80.5,30.08,SE,142,1.0,5.0,75,0.00,,,0.00,Wunderground v.1.13,2013-07-18 17:20:00,
2013-07-18 13:25:00,89.1,79.7,30.08,SSE,161,1.0,1.0,74,0.00,,,0.00,Wunderground v.1.13,2013-07-18 17:25:00,
2013-07-18 13:30:00,89.2,79.0,30.08,SW,223,1.0,1.0,72,0.00,,,0.00,Wunderground v.1.13,2013-07-18 17:30:00,
2013-07-18 13:40:00,89.9,80.5,30.08,SSE,157,1.0,5.0,74,0.00,,,0.00,Wunderground v.1.13,2013-07-18 17:40:00,
2013-07-18 13:45:00,89.8,80.4,30.07,SSW,197,1.0,5.0,74,0.00,,,0.00,Wunderground v.1.13,2013-07-18 17:45:00,
2013-07-18 13:50:00,89.9,78.8,30.07,West,260,2.0,5.0,70,0.00,,,0.00,Wunderground v.1.13,2013-07-18 17:50:00,
2013-07-18 13:55:00,89.9,78.8,30.07,ESE,103,2.0,5.0,70,0.00,,,0.00,Wunderground v.1.13,2013-07-18 17:55:00,
2013-07-18 14:00:00,90.0,80.2,30.06,SE,145,2.0,2.0,73,0.00,,,0.00,Wunderground v.1.13,2013-07-18 18:00:00,
2013-07-18 14:05:00,90.4,78.8,30.07,SSE,164,1.0,3.0,69,0.00,,,0.00,Wunderground v.1.13,2013-07-18 18:05:00,
2013-07-18 14:15:00,90.2,78.6,30.06,SSE,158,1.0,3.0,69,0.00,,,0.00,Wunderground v.1.13,2013-07-18 18:15:00,
2013-07-18 14:20:00,90.8,78.8,30.06,South,187,1.0,3.0,68,0.00,,,0.00,Wunderground v.1.13,2013-07-18 18:20:00,
2013-07-18 14:30:00,90.9,77.5,30.05,West,265,2.0,3.0,65,0.00,,,0.00,Wunderground v.1.13,2013-07-18 18:30:00,
2013-07-18 14:35:00,90.9,78.9,30.05,SW,236,2.0,2.0,68,0.00,,,0.00,Wunderground v.1.13,2013-07-18 18:35:00,
2013-07-18 14:40:00,91.0,78.5,30.05,SSE,152,2.0,2.0,67,0.00,,,0.00,Wunderground v.1.13,2013-07-18 18:40:00,
2013-07-18 14:45:00,90.7,78.7,30.05,South,180,1.0,3.0,68,0.00,,,0.00,Wunderground v.1.13,2013-07-18 18:45:00,
2013-07-18 14:50:00,90.5,78.9,30.05,West,281,1.0,1.0,69,0.00,,,0.00,Wunderground v.1.13,2013-07-18 18:50:00,
2013-07-18 15:00:00,89.7,80.3,30.04,WNW,286,2.0,2.0,74,0.00,,,0.00,Wunderground v.1.13,2013-07-18 19:00:00,
2013-07-18 15:05:00,89.1,80.1,30.04,WNW,286,2.0,3.0,75,0.00,,,0.00,Wunderground v.1.13,2013-07-18 19:05:00,
2013-07-18 15:15:00,89.0,78.8,30.04,SSE,168,1.0,3.0,72,0.00,,,0.00,Wunderground v.1.13,2013-07-18 19:15:00,
2013-07-18 15:20:00,89.3,80.3,30.04,South,170,1.0,1.0,75,0.00,,,0.00,Wunderground v.1.13,2013-07-18 19:20:00,
2013-07-18 15:25:00,89.6,80.6,30.03,South,170,1.0,1.0,75,0.00,,,0.00,Wunderground v.1.13,2013-07-18 19:25:00,
2013-07-18 15:30:00,89.8,80.8,30.03,South,170,1.0,1.0,75,0.00,,,0.00,Wunderground v.1.13,2013-07-18 19:30:00,
2013-07-18 15:40:00,90.0,80.6,30.03,SSE,152,1.0,3.0,74,0.00,,,0.00,Wunderground v.1.13,2013-07-18 19:40:00,
2013-07-18 15:50:00,90.0,81.4,30.02,WNW,283,1.0,3.0,76,0.00,,,0.00,Wunderground v.1.13,2013-07-18 19:50:00,
2013-07-18 15:55:00,89.3,79.5,30.03,NNW,337,2.0,2.0,73,0.00,,,0.00,Wunderground v.1.13,2013-07-18 19:55:00,
2013-07-18 16:05:00,89.0,80.0,30.02,SSE,157,1.0,6.0,75,0.00,,,0.00,Wunderground v.1.13,2013-07-18 20:05:00,
2013-07-18 16:15:00,90.1,78.6,30.02,West,280,2.0,6.0,69,0.00,,,0.00,Wunderground v.1.13,2013-07-18 20:15:00,
2013-07-18 16:20:00,90.8,80.1,30.02,SW,223,2.0,2.0,71,0.00,,,0.00,Wunderground v.1.13,2013-07-18 20:20:00,
2013-07-18 16:25:00,91.4,79.3,30.01,SSW,195,2.0,6.0,68,0.00,,,0.00,Wunderground v.1.13,2013-07-18 20:25:00,
2013-07-18 16:30:00,91.0,79.8,30.01,SSE,155,2.0,2.0,70,0.00,,,0.00,Wunderground v.1.13,2013-07-18 20:30:00,
2013-07-18 16:40:00,91.3,79.3,30.01,West,281,2.0,6.0,68,0.00,,,0.00,Wunderground v.1.13,2013-07-18 20:40:00,
2013-07-18 16:45:00,91.4,79.3,30.01,WSW,255,3.0,3.0,68,0.00,,,0.00,Wunderground v.1.13,2013-07-18 20:45:00,
2013-07-18 16:50:00,91.5,78.5,30.01,SSW,200,2.0,2.0,66,0.00,,,0.00,Wunderground v.1.13,2013-07-18 20:50:00,
2013-07-18 16:55:00,91.5,80.3,30.01,West,271,2.0,2.0,70,0.00,,,0.00,Wunderground v.1.13,2013-07-18 20:55:00,
2013-07-18 17:05:00,91.8,79.7,30.00,SSW,194,3.0,3.0,68,0.00,,,0.00,Wunderground v.1.13,2013-07-18 21:05:00,
2013-07-18 17:15:00,92.1,79.1,30.00,West,281,2.0,6.0,66,0.00,,,0.00,Wunderground v.1.13,2013-07-18 21:15:00,
2013-07-18 17:20:00,92.2,80.6,29.99,WNW,294,2.0,2.0,69,0.00,,,0.00,Wunderground v.1.13,2013-07-18 21:20:00,
2013-07-18 17:30:00,92.2,79.2,29.99,SE,140,1.0,6.0,66,0.00,,,0.00,Wunderground v.1.13,2013-07-18 21:30:00,
2013-07-18 17:40:00,91.8,78.8,29.99,WSW,239,2.0,2.0,66,0.00,,,0.00,Wunderground v.1.13,2013-07-18 21:40:00,
2013-07-18 17:45:00,92.2,81.0,29.99,NW,319,2.0,6.0,70,0.00,,,0.00,Wunderground v.1.13,2013-07-18 21:45:00,
2013-07-18 17:50:00,92.4,79.8,29.99,WNW,303,2.0,2.0,67,0.00,,,0.00,Wunderground v.1.13,2013-07-18 21:50:00,
2013-07-18 18:00:00,91.8,79.7,29.99,WNW,302,2.0,2.0,68,0.00,,,0.00,Wunderground v.1.13,2013-07-18 22:00:00,
2013-07-18 18:05:00,92.0,80.4,29.99,NE,38,1.0,1.0,69,0.00,,,0.00,Wunderground v.1.13,2013-07-18 22:05:00,
2013-07-18 18:15:00,92.4,79.8,30.00,WNW,296,1.0,2.0,67,0.00,,,0.00,Wunderground v.1.13,2013-07-18 22:15:00,
2013-07-18 18:20:00,92.2,79.7,30.00,West,261,1.0,2.0,67,0.00,,,0.00,Wunderground v.1.13,2013-07-18 22:20:00,
2013-07-18 18:30:00,92.2,80.1,30.00,West,270,1.0,2.0,68,0.00,,,0.00,Wunderground v.1.13,2013-07-18 22:30:00,
2013-07-18 18:35:00,91.9,79.8,30.00,West,279,1.0,1.0,68,0.00,,,0.00,Wunderground v.1.13,2013-07-18 22:35:00,
2013-07-18 18:45:00,90.5,79.4,30.00,WNW,297,2.0,2.0,70,0.00,,,0.00,Wunderground v.1.13,2013-07-18 22:45:00,
2013-07-18 18:50:00,90.1,79.4,30.00,WNW,298,1.0,2.0,71,0.00,,,0.00,Wunderground v.1.13,2013-07-18 22:50:00,
2013-07-18 18:55:00,89.4,79.6,30.00,WNW,300,2.0,2.0,73,0.00,,,0.00,Wunderground v.1.13,2013-07-18 22:55:00,
2013-07-18 19:05:00,88.8,80.3,30.00,WNW,300,1.0,3.0,76,0.00,,,0.00,Wunderground v.1.13,2013-07-18 23:05:00,
2013-07-18 19:15:00,87.8,79.3,30.00,WNW,300,2.0,2.0,76,0.00,,,0.00,Wunderground v.1.13,2013-07-18 23:15:00,
2013-07-18 19:25:00,86.7,77.8,29.99,NW,304,1.0,3.0,75,0.00,,,0.00,Wunderground v.1.13,2013-07-18 23:25:00,
2013-07-18 19:30:00,86.4,77.9,29.99,NW,304,2.0,3.0,76,0.00,,,0.00,Wunderground v.1.13,2013-07-18 23:30:00,
2013-07-18 19:35:00,86.1,77.6,29.99,WNW,303,1.0,3.0,76,0.00,,,0.00,Wunderground v.1.13,2013-07-18 23:35:00,
2013-07-18 19:40:00,85.6,77.9,29.99,NW,304,1.0,3.0,78,0.00,,,0.00,Wunderground v.1.13,2013-07-18 23:40:00,
2013-07-18 19:50:00,84.8,77.6,29.99,WNW,303,2.0,2.0,79,0.00,,,0.00,Wunderground v.1.13,2013-07-18 23:50:00,
2013-07-18 19:55:00,84.8,78.3,29.99,WNW,303,1.0,3.0,81,0.00,,,0.00,Wunderground v.1.13,2013-07-18 23:55:00,
2013-07-18 20:00:00,84.5,77.6,30.00,NW,304,1.0,3.0,80,0.00,,,0.00,Wunderground v.1.13,2013-07-19 00:00:00,
2013-07-18 20:05:00,84.2,77.7,29.99,NW,304,1.0,1.0,81,0.00,,,0.00,Wunderground v.1.13,2013-07-19 00:05:00,
2013-07-18 20:15:00,83.8,77.0,29.99,WNW,303,1.0,3.0,80,0.00,,,0.00,Wunderground v.1.13,2013-07-19 00:15:00,
2013-07-18 20:20:00,83.6,77.5,29.99,NW,304,1.0,1.0,82,0.00,,,0.00,Wunderground v.1.13,2013-07-19 00:20:00,
2013-07-18 20:30:00,-999.9,-99.9,-32.77,North,32767,-999.0,3.0,255,-99.99,,,0.00,Wunderground v.1.13,2013-07-19 00:30:00,
2013-07-18 20:40:00,83.0,77.7,29.99,WNW,303,0.0,3.0,84,0.00,,,0.00,Wunderground v.1.13,2013-07-19 00:40:00,
2013-07-18 20:50:00,82.4,77.1,29.99,NW,304,0.0,3.0,84,0.00,,,0.00,Wunderground v.1.13,2013-07-19 00:50:00,
2013-07-18 20:55:00,82.1,76.8,29.99,NW,304,0.0,3.0,84,0.00,,,0.00,Wunderground v.1.13,2013-07-19 00:55:00,
2013-07-18 21:00:00,81.9,76.6,29.99,NW,304,0.0,3.0,84,0.00,,,0.00,Wunderground v.1.13,2013-07-19 01:00:00,
2013-07-18 21:05:00,81.6,76.6,29.99,NW,304,0.0,0.0,85,0.00,,,0.00,Wunderground v.1.13,2013-07-19 01:05:00,
2013-07-18 21:15:00,81.1,76.2,29.98,WNW,303,0.0,0.0,85,0.00,,,0.00,Wunderground v.1.13,2013-07-19 01:15:00,
2013-07-18 21:25:00,80.7,76.1,29.99,NW,304,0.0,0.0,86,0.00,,,0.00,Wunderground v.1.13,2013-07-19 01:25:00,
2013-07-18 21:35:00,80.3,75.7,29.99,NW,304,0.0,0.0,86,0.00,,,0.00,Wunderground v.1.13,2013-07-19 01:35:00,
2013-07-18 21:40:00,80.2,76.0,29.99,NW,304,0.0,0.0,87,0.00,,,0.00,Wunderground v.1.13,2013-07-19 01:40:00,
2013-07-18 21:50:00,79.8,75.9,29.99,WNW,303,0.0,0.0,88,0.00,,,0.00,Wunderground v.1.13,2013-07-19 01:50:00,
2013-07-18 22:00:00,79.5,75.6,29.99,NW,304,0.0,0.0,88,0.00,,,0.00,Wunderground v.1.13,2013-07-19 02:00:00,
2013-07-18 22:05:00,79.4,75.5,29.99,NW,304,0.0,0.0,88,0.00,,,0.00,Wunderground v.1.13,2013-07-19 02:05:00,
2013-07-18 22:15:00,79.2,75.7,29.99,NW,304,0.0,0.0,89,0.00,,,0.00,Wunderground v.1.13,2013-07-19 02:15:00,
2013-07-18 22:25:00,79.1,75.6,29.99,WNW,303,0.0,0.0,89,0.00,,,0.00,Wunderground v.1.13,2013-07-19 02:25:00,
2013-07-18 22:30:00,78.9,75.4,29.99,NW,304,0.0,0.0,89,0.00,,,0.00,Wunderground v.1.13,2013-07-19 02:30:00,
2013-07-18 22:40:00,78.7,75.2,29.99,NW,304,0.0,0.0,89,0.00,,,0.00,Wunderground v.1.13,2013-07-19 02:40:00,
2013-07-18 22:45:00,78.7,75.2,29.99,NW,304,0.0,0.0,89,0.00,,,0.00,Wunderground v.1.13,2013-07-19 02:45:00,
2013-07-18 22:55:00,78.7,75.5,29.98,NW,304,0.0,0.0,90,0.00,,,0.00,Wunderground v.1.13,2013-07-19 02:55:00,
2013-07-18 23:05:00,78.5,75.3,29.98,WNW,303,0.0,0.0,90,0.00,,,0.00,Wunderground v.1.13,2013-07-19 03:05:00,
2013-07-18 23:15:00,78.3,75.1,29.99,NW,304,0.0,0.0,90,0.00,,,0.00,Wunderground v.1.13,2013-07-19 03:15:00,
2013-07-18 23:25:00,78.1,74.9,29.99,NW,304,0.0,0.0,90,0.00,,,0.00,Wunderground v.1.13,2013-07-19 03:25:00,
2013-07-18 23:30:00,78.0,74.8,29.99,WNW,303,0.0,0.0,90,0.00,,,0.00,Wunderground v.1.13,2013-07-19 03:30:00,
2013-07-18 23:40:00,77.8,75.0,29.99,WNW,303,0.0,0.0,91,0.00,,,0.00,Wunderground v.1.13,2013-07-19 03:40:00,
2013-07-18 23:45:00,77.7,74.9,29.99,WNW,303,0.0,0.0,91,0.00,,,0.00,Wunderground v.1.13,2013-07-19 03:45:00,
2013-07-18 23:55:00,77.6,74.8,30.00,NW,304,0.0,0.0,91,0.00,,,0.00,Wunderground v.1.13,2013-07-19 03:55:00,